Tracking 19795 objects as of 20-Jul-2019
HD Live streaming from Space Station
objects crossing your sky now

PROX-1

Track PROX-1 now!
10-day predictions


NORAD ID: 44339
Int'l Code: 2019-036A
Perigee: 716.3 km
Apogee: 732.0 km
Inclination: 24.0 °
Period: 99.1 minutes
Semi major axis: 7095 km
RCS: Unknown
Launch date: June 25, 2019
Source: United States (US)
Launch site: AIR FORCE EASTERN TEST RANGE (AFETR)
aabbcc
Your satellite tracking list
Your tracking list is empty




NASA's NSSDC Master Catalog

Two Line Element Set (TLE):
1 44339U 19036A   19200.85024853  .00000196  00000-0 -33827-5 0  9994
2 44339  24.0011  50.3145 0011025 107.8320 252.3385 14.52652676  3567
Source of the keplerian elements: AFSPC